Zurück zum Katalog

THORAD AGENA D DEB

AktivSSO
NORAD 4948·DEBRIS·🇺🇸 United States

Gestartet Apr 8, 1970 von Vandenberg Space Force Base

Loading…

Nächste Überflüge (nächste 24 Stunden)

TLE

AktuellSource: Space-Track

Epoche: Sep 14, 2026, 01:55 UTC

1 04948U 70025GJ  26257.08042347  .00000811  00000-0  11278-2 0  9990
2 04948  99.3951  99.9532 0205221 277.9072 236.4675 13.52625841750424

Verfolge THORAD AGENA D DEB in Echtzeit mit AllMySat

Download on the App Store